Flag for Canada Weather past 2 weeks in Lloydminster, Alberta, Canada

Now
63 °F

Mostly cloudy.


Feels Like: 63 °F
Forecast: 41 / 58 °F
Wind: 6 mph from Southeast

Location: Lloydminister

Current Time: May 27, 2015 at 10:47:11 PM

Latest Report: May 27, 2015 at 10:00 PM


Visibility: 15 mi

Pressure: 29.89 "Hg

Humidity: 49%

Dew point: 43 °F

Location of LloydminsterLocation

Historic Weather in Lloydminster — Graph

°F

Lloydminster temperature yesterday

Maximum temperature yesterday: 75 °F (at 1:00 PM)
Minimum temperature yesterday: 50 °F (at 6:00 AM)
Average temperature yesterday: 64 °F

Past Weeks' High & Low Weather Summary

 TemperatureHumidityPressure
High79 °F (May 23, 12:00 PM)93% (May 14, 5:00 AM)30.52 "Hg (May 14, 5:00 AM)
Low27 °F (May 17, 5:00 AM)12% (May 19, 3:00 PM)29.81 "Hg (May 25, 5:00 PM)
Average56 °F39%30.13 "Hg
* Reported May 12 9:00 PM — May 27 9:00 PM, Lloydminster, Weather by CustomWeather, © 2015

Note: Actual official high and low records may vary slightly from our data, if they occured in-between our weather recording intervals... More about our weather records

Advertising

Lloydminster weather history for previous 24 hours

 ConditionsComfort  
Time TempWeatherWind HumidityBarometerVisibility
9:00 PM
Wed, May 27
63 °FBroken clouds.7 mph52%29.89 "Hg15 mi
8:00 PM68 °FPartly sunny.8 mph49%29.89 "Hg15 mi
7:00 PM70 °FPartly sunny.9 mph43%29.90 "Hg15 mi
6:00 PM72 °FBroken clouds.2 mph36%29.92 "Hg15 mi
5:00 PM72 °FMostly cloudy.5 mph33%29.93 "Hg15 mi
4:00 PM72 °FPartly sunny.5 mph33%29.94 "Hg15 mi
3:00 PM73 °FPartly sunny.3 mph31%29.96 "Hg15 mi
2:00 PM72 °FBroken clouds.7 mph33%29.98 "Hg15 mi
1:00 PM70 °FScattered clouds.12 mph35%29.99 "Hg15 mi
12:00 PM68 °FScattered clouds.9 mph40%30.01 "Hg15 mi
11:00 AM64 °FPassing clouds.8 mph49%30.03 "Hg15 mi
10:00 AM61 °FScattered clouds.10 mph55%30.04 "Hg15 mi
9:00 AM55 °FScattered clouds.10 mph63%30.04 "Hg15 mi
8:00 AM54 °FScattered clouds.9 mph63%30.05 "Hg15 mi
7:00 AM48 °FScattered clouds.13 mph71%30.04 "Hg15 mi
6:00 AM43 °FClear.8 mph81%30.04 "Hg9 mi
5:00 AM43 °FClear.8 mph76%30.03 "Hg9 mi
4:00 AM45 °FClear.5 mph71%30.03 "Hg9 mi
3:00 AM45 °FClear.5 mph66%30.03 "Hg9 mi
2:00 AM46 °FClear.3 mph66%30.03 "Hg9 mi
1:00 AM46 °FClear.7 mph66%30.03 "Hg9 mi
12:00 AM48 °FClear.8 mph62%30.02 "Hg9 mi
11:00 PM
Tue, May 26
50 °FClear.8 mph62%30.01 "Hg9 mi
10:00 PM54 °FScattered clouds.9 mph51%30.00 "Hg12 mi
Weather by CustomWeather, © 2015

See weather overviewHow to use our weather pages